User: anonymous   Login
Location: Killarney Provincial Park Observatory
(46.0124°N, 81.4000°W)
Time: 19:41:47
(UTC-04:00)
Language:

Iridium 22 - Orbit

View from above orbital plane
View from above orbital plane
View from above satellite
View from above satellite

Ground track
Ground track

The orbit data is extracted from the following two-line orbital elements,

1 24907U 97043E   17292.37963758  .00000198  00000-0  63499-4 0  9997
2 24907  86.4024 204.1958 0002098  79.9756 280.1677 14.34217665 55638
Epoch (UTC): 19 October 2017 09:06:40
Eccentricity: 0.0002098
inclination: 86.4024°
perigee height: 776 km
apogee height: 779 km
right ascension of ascending node: 204.1958°
argument of perigee: 79.9756°
revolutions per day: 14.34217665
mean anomaly at epoch: 280.1677°
orbit number at epoch: 5563

The dashed part of the orbit path shows where the satellite is in the earth's shadow,  

DLR